Regional Weather Roundup
Issued by NWS

Home | Current Version | Previous Version | Graphics & Text | Print | Product List | Glossary On
Versions: 1 2 3 4 5 6 7 8 9 10 11 12 13 14 15 16 17 18 19 20 21 22 23 24 25 26 27 28 29 30 31 32 33 34 35 36 37 38 39 40 41 42 43 44 45 46 47 48 49 50
222
ASUS43 KBIS 220002
RWRND

NORTH DAKOTA REGIONAL WEATHER ROUNDUP
NATIONAL WEATHER SERVICE BISMARCK ND
600 PM CST TUE NOV 21 2017

NOTE: "FAIR" INDICATES FEW OR NO CLOUDS BELOW 12,000 FEET WITH NO
SIGNIFICANT WEATHER AND/OR OBSTRUCTIONS TO VISIBILITY.


NDZ001>003-009>011-017-220100-
NORTHWEST NORTH DAKOTA

CITY           SKY/WX    TMP DP  RH WIND       PRES   REMARKS
WILLISTON      PTCLDY    12   0  58 CALM      30.29F
6HR MIN TEMP:   8; 6HR MAX TEMP:  17;

MINOT          CLOUDY    12   3  67 W8        30.31F WCI   0
MINOT AFB      CLOUDY     8   2  76 CALM      30.30F
$$

NDZ018>021-031>035-040>046-220100-
SOUTHWEST NORTH DAKOTA

CITY           SKY/WX    TMP DP  RH WIND       PRES   REMARKS
BISMARCK       CLOUDY    19   6  57 NW3       30.36S
6HR MIN TEMP:  19; 6HR MAX TEMP:  25;

DICKINSON      CLOUDY    16   0  49 CALM      30.24F
GARRISON         N/A      8   4  83 NW5       30.32F WCI   0
6HR MIN TEMP:   8; 6HR MAX TEMP:  15;

HETTINGER ARPT CLEAR     19   2  47 CALM      30.26F
$$

NDZ004>008-012>016-024-026-027-054-220100-
NORTHEAST NORTH DAKOTA

CITY           SKY/WX    TMP DP  RH WIND       PRES   REMARKS
GRAND FORKS    CLOUDY    16  11  80 W9        30.34S WCI   4
GRND FRKS AFB  CLEAR     16   9  74 NW7       30.33S WCI   6
DEVILS LAKE    PTCLDY    14   8  77 W9        30.32R WCI   2
$$

NDZ022-023-025-028>030-036>039-047>053-220100-
SOUTHEAST NORTH DAKOTA

CITY           SKY/WX    TMP DP  RH WIND       PRES   REMARKS
FARGO          CLOUDY    18   9  68 NW9       30.35R WCI   7
6HR MIN TEMP:  18; 6HR MAX TEMP:  25;

JAMESTOWN      CLOUDY    12   6  77 NW6       30.33S WCI   3
$$





USA.gov is the U.S. government's official web portal to all federal, state and local government web resources and services.